Lid_Strength_Index
10 13 15 13 12 12 14 15 16 17 15 15 16 17 16 16 17 17 16 15 14 12 11 10 9 9 9 10 10 10 10 10 10 11 12 12 13 13 13 12 12 12 12 11
12 14 11 10 11 12 13 14 15 15 14 15 17 16 17 16 15 15 15 15 14 13 11 10 9 9 10 10 10 10 10 10 11 11 12 12 13 13 13 12 12 12 12 11
13 11 8 9 11 13 13 14 15 15 15 15 16 17 17 16 15 15 14 13 13 12 11 10 9 9 10 11 10 10 10 11 11 11 12 12 12 13 13 13 13 12 12 12
11 8 9 9 11 11 14 11 12 14 16 19 15 20 17 16 15 14 13 13 13 11 10 9 9 10 10 11 10 10 10 11 11 12 13 14 14 15 14 14 14 13 12 12
11 10 9 11 10 10 12 11 12 14 16 17 16 19 17 16 17 15 13 13 12 10 10 9 9 9 10 11 11 11 11 11 11 12 13 14 14 14 13 14 14 13 13 12
10 7 8 9 9 9 10 11 12 13 16 21 17 18 19 17 14 14 13 12 11 11 10 9 9 9 11 12 11 11 11 12 12 12 13 13 14 14 14 14 14 14 13 13
11 10 8 8 11 9 11 14 20 22 22 22 15 17 16 12 11 11 12 11 11 11 9 9 10 11 11 12 12 11 11 12 12 13 12 13 13 14 14 15 14 15 14 13
14 15 10 8 10 11 11 12 17 24 21 19 13 18 14 11 10 9 10 11 11 10 9 9 10 11 11 11 11 11 11 12 12 12 12 13 13 14 13 14 14 14 14 14
16 15 8 8 7 9 12 14 11 16 16 20 17 14 12 12 11 11 11 11 11 10 9 10 10 11 11 11 11 11 11 11 12 12 13 13 13 13 14 13 13 14 14 12
13 16 10 8 7 8 10 9 15 17 22 22 19 16 17 14 13 12 12 12 11 10 10 10 10 10 11 11 11 11 11 11 12 12 12 13 13 13 13 13 13 13 13 13
11 12 13 10 12 13 12 14 15 17 20 22 24 19 13 13 12 12 12 11 10 10 10 10 10 10 10 11 11 11 11 11 12 12 12 13 13 13 13 13 13 13 13 13
10 12 16 13 9 8 10 12 14 17 18 22 22 19 13 11 10 11 12 10 10 9 9 10 10 10 11 11 11 11 11 12 12 12 12 13 13 13 13 13 13 13 14 13
10 13 17 16 12 10 12 11 12 17 18 22 19 17 12 10 11 11 12 10 9 9 10 10 10 10 10 11 11 11 11 12 12 12 13 13 13 13 14 13 13 13 13 14
8 12 15 17 14 12 15 13 12 14 18 17 19 17 15 14 12 11 11 10 9 9 10 10 10 10 10 11 11 11 11 12 12 12 13 14 14 13 13 13 13 13 13 14
9 15 13 12 11 11 12 12 12 15 13 16 16 17 15 12 11 11 10 9 9 9 10 10 10 11 11 11 11 11 11 12 12 13 13 14 13 13 13 13 13 13 13 14
9 14 13 14 11 11 13 11 12 12 14 15 15 16 13 11 10 10 10 9 9 9 9 9 10 10 10 11 11 11 12 12 12 13 13 12 12 12 13 13 13 13 14 14
11 12 14 17 12 13 16 14 12 12 12 13 16 13 11 12 10 10 9 9 9 9 9 9 10 10 10 11 11 12 12 12 13 13 12 12 12 13 13 13 13 14 14 15
11 12 13 16 14 20 12 11 10 11 11 12 12 12 9 10 8 8 8 9 8 8 8 9 10 10 10 11 12 12 12 13 13 13 13 12 13 13 13 13 14 14 15 15
9 11 15 17 16 14 12 12 12 13 13 10 10 10 9 10 10 9 7 7 7 7 8 9 9 10 11 12 12 12 13 13 13 13 13 12 13 13 14 14 14 14 15 16
9 10 14 16 17 18 14 12 11 11 15 10 8 9 10 10 13 12 8 7 7 7 8 9 10 10 11 12 12 13 14 13 13 13 12 12 13 14 14 14 15 15 15 15
13 15 16 18 19 15 11 10 11 16 14 9 9 9 10 10 9 9 7 8 7 8 9 9 10 11 12 12 13 13 14 14 13 12 12 13 14 14 15 15 15 16 16 16
14 16 16 16 18 18 9 11 14 11 9 9 9 9 10 10 9 9 8 8 9 10 10 10 10 11 12 12 13 14 14 13 12 12 13 14 15 14 15 15 16 16 17 17
14 13 14 13 14 9 9 10 9 8 9 9 9 9 9 9 10 9 9 9 10 10 10 10 10 11 13 13 12 13 13 12 13 13 15 16 16 16 16 17 17 18 17 18
11 10 12 12 11 10 9 9 9 8 9 8 8 8 8 9 9 9 9 10 10 10 10 10 11 12 13 13 12 12 12 12 13 14 15 16 18 18 18 17 17 18 18 18
10 10 11 11 9 8 8 9 8 9 8 8 8 8 8 9 10 9 10 10 10 10 10 10 11 12 13 12 12 12 12 12 13 15 15 16 17 18 18 18 18 17 17 17
9 11 12 12 9 9 9 8 7 9 8 8 8 9 8 9 9 9 10 10 10 10 10 10 11 12 12 12 12 12 12 12 13 15 16 16 17 17 18 18 18 15 15 14